Time,TemperatureF,DewpointF,PressureIn,WindDirection,WindDirectionDegrees,WindSpeedMPH,WindSpeedGustMPH,Humidity,HourlyPrecipIn,Conditions,Clouds,dailyrainin,SolarRadiationWatts/m^2,SoftwareType,DateUTC
2013-04-20 00:23:00,47.0,45.0,-100.00,West,266,4.0,14.0,91,0.00,,,0.76,1.000000,,2013-04-20 04:23:00,
2013-04-20 00:33:00,47.0,45.0,-100.00,West,266,4.0,14.0,91,0.00,,,0.76,1.000000,,2013-04-20 04:33:00,
2013-04-20 00:42:00,47.0,45.0,-100.00,West,266,4.0,14.0,91,0.00,,,0.76,1.000000,,2013-04-20 04:42:00,
2013-04-20 00:52:00,47.0,45.0,-100.00,West,266,4.0,14.0,91,0.00,,,0.76,1.000000,,2013-04-20 04:52:00,
2013-04-20 01:22:00,46.0,45.0,-100.00,West,273,4.0,11.0,95,0.02,,,0.78,1.000000,,2013-04-20 05:22:00,
2013-04-20 01:32:00,46.0,45.0,-100.00,West,273,4.0,11.0,95,0.02,,,0.78,1.000000,,2013-04-20 05:32:00,
2013-04-20 01:43:00,46.0,45.0,-100.00,West,273,4.0,11.0,95,0.02,,,0.78,1.000000,,2013-04-20 05:43:00,
2013-04-20 01:52:00,46.0,45.0,-100.00,West,273,4.0,11.0,95,0.02,,,0.78,1.000000,,2013-04-20 05:52:00,
2013-04-20 02:22:00,46.0,40.0,-100.00,West,271,4.0,11.0,80,0.00,,,0.78,1.000000,,2013-04-20 06:22:00,
2013-04-20 02:32:00,46.0,40.0,-100.00,West,271,4.0,11.0,80,0.00,,,0.78,1.000000,,2013-04-20 06:32:00,
2013-04-20 02:42:00,46.0,40.0,-100.00,West,271,4.0,11.0,80,0.00,,,0.78,1.000000,,2013-04-20 06:42:00,
2013-04-20 02:52:00,46.0,40.0,-100.00,West,271,4.0,11.0,80,0.00,,,0.78,1.000000,,2013-04-20 06:52:00,
2013-04-20 03:22:00,46.0,37.0,-100.00,West,273,5.0,18.0,70,0.00,,,0.78,1.000000,,2013-04-20 07:22:00,
2013-04-20 03:32:00,46.0,37.0,-100.00,West,273,5.0,18.0,70,0.00,,,0.78,1.000000,,2013-04-20 07:32:00,
2013-04-20 03:42:00,46.0,37.0,-100.00,West,273,5.0,18.0,70,0.00,,,0.78,1.000000,,2013-04-20 07:42:00,
2013-04-20 03:52:00,46.0,37.0,-100.00,West,273,5.0,18.0,70,0.00,,,0.78,1.000000,,2013-04-20 07:52:00,
2013-04-20 04:22:00,44.0,33.0,-100.00,West,273,4.0,22.0,65,0.00,,,0.78,1.000000,,2013-04-20 08:22:00,
2013-04-20 04:32:00,44.0,33.0,-100.00,West,273,4.0,22.0,65,0.00,,,0.78,1.000000,,2013-04-20 08:32:00,
2013-04-20 04:42:00,44.0,33.0,-100.00,West,273,4.0,22.0,65,0.00,,,0.78,1.000000,,2013-04-20 08:42:00,
2013-04-20 04:52:00,44.0,33.0,-100.00,West,273,4.0,22.0,65,0.00,,,0.78,1.000000,,2013-04-20 08:52:00,
2013-04-20 05:22:00,43.0,34.0,-100.00,West,273,5.0,13.0,69,0.00,,,0.78,1.000000,,2013-04-20 09:22:00,
2013-04-20 05:33:00,43.0,34.0,-100.00,West,273,5.0,13.0,69,0.00,,,0.78,1.000000,,2013-04-20 09:33:00,
2013-04-20 05:43:00,43.0,34.0,-100.00,West,273,5.0,13.0,69,0.00,,,0.78,1.000000,,2013-04-20 09:43:00,
2013-04-20 05:53:00,43.0,34.0,-100.00,West,273,5.0,13.0,69,0.00,,,0.78,1.000000,,2013-04-20 09:53:00,
2013-04-20 06:23:00,42.0,31.0,-100.00,West,268,6.0,18.0,66,0.00,,,0.78,1.000000,,2013-04-20 10:23:00,
2013-04-20 06:33:00,42.0,31.0,-100.00,West,268,6.0,18.0,66,0.00,,,0.78,1.000000,,2013-04-20 10:33:00,
2013-04-20 06:42:00,42.0,31.0,-100.00,West,268,6.0,18.0,66,0.00,,,0.78,1.000000,,2013-04-20 10:42:00,
2013-04-20 06:52:00,42.0,31.0,-100.00,West,268,6.0,18.0,66,0.00,,,0.78,1.000000,,2013-04-20 10:52:00,
2013-04-20 07:23:00,41.0,31.0,-100.00,West,271,4.0,14.0,67,0.00,,,0.78,8.000000,,2013-04-20 11:23:00,
2013-04-20 07:32:00,41.0,31.0,-100.00,West,271,4.0,14.0,67,0.00,,,0.78,8.000000,,2013-04-20 11:32:00,
2013-04-20 07:42:00,41.0,31.0,-100.00,West,271,4.0,14.0,67,0.00,,,0.78,8.000000,,2013-04-20 11:42:00,
2013-04-20 07:52:00,41.0,31.0,-100.00,West,271,4.0,14.0,67,0.00,,,0.78,8.000000,,2013-04-20 11:52:00,
2013-04-20 08:23:00,41.0,31.0,-100.00,West,273,4.0,13.0,66,0.00,,,0.78,47.000000,,2013-04-20 12:23:00,
2013-04-20 08:32:00,41.0,31.0,-100.00,West,273,4.0,13.0,66,0.00,,,0.78,47.000000,,2013-04-20 12:32:00,
2013-04-20 08:42:00,41.0,31.0,-100.00,West,273,4.0,13.0,66,0.00,,,0.78,47.000000,,2013-04-20 12:42:00,
2013-04-20 08:52:00,41.0,31.0,-100.00,West,273,4.0,13.0,66,0.00,,,0.78,47.000000,,2013-04-20 12:52:00,
2013-04-20 09:22:00,43.0,30.0,-100.00,West,270,7.0,25.0,61,0.00,,,0.78,326.000000,,2013-04-20 13:22:00,
2013-04-20 09:32:00,43.0,30.0,-100.00,West,270,7.0,25.0,61,0.00,,,0.78,326.000000,,2013-04-20 13:32:00,
2013-04-20 09:42:00,43.0,30.0,-100.00,West,270,7.0,25.0,61,0.00,,,0.78,326.000000,,2013-04-20 13:42:00,
2013-04-20 09:52:00,43.0,30.0,-100.00,West,270,7.0,25.0,61,0.00,,,0.78,326.000000,,2013-04-20 13:52:00,
2013-04-20 10:22:00,43.0,30.0,-100.00,West,265,7.0,20.0,59,0.00,,,0.78,334.000000,,2013-04-20 14:22:00,
2013-04-20 10:32:00,43.0,30.0,-100.00,West,265,7.0,20.0,59,0.00,,,0.78,334.000000,,2013-04-20 14:32:00,
2013-04-20 10:42:00,43.0,30.0,-100.00,West,265,7.0,20.0,59,0.00,,,0.78,334.000000,,2013-04-20 14:42:00,
2013-04-20 10:51:00,43.0,30.0,-100.00,West,265,7.0,20.0,59,0.00,,,0.78,334.000000,,2013-04-20 14:51:00,
2013-04-20 11:22:00,45.0,28.0,-100.00,West,270,7.0,20.0,52,0.00,,,0.78,279.000000,,2013-04-20 15:22:00,
2013-04-20 11:33:00,45.0,28.0,-100.00,West,270,7.0,20.0,52,0.00,,,0.78,279.000000,,2013-04-20 15:33:00,
2013-04-20 11:43:00,45.0,28.0,-100.00,West,270,7.0,20.0,52,0.00,,,0.78,279.000000,,2013-04-20 15:43:00,
2013-04-20 11:53:00,45.0,28.0,-100.00,West,270,7.0,20.0,52,0.00,,,0.78,279.000000,,2013-04-20 15:53:00,
2013-04-20 12:23:00,47.0,29.0,-100.00,WNW,286,5.0,22.0,50,0.00,,,0.78,444.000000,,2013-04-20 16:23:00,
2013-04-20 12:33:00,47.0,29.0,-100.00,WNW,286,5.0,22.0,50,0.00,,,0.78,444.000000,,2013-04-20 16:33:00,
2013-04-20 12:42:00,47.0,29.0,-100.00,WNW,286,5.0,22.0,50,0.00,,,0.78,444.000000,,2013-04-20 16:42:00,
2013-04-20 12:52:00,47.0,29.0,-100.00,WNW,286,5.0,22.0,50,0.00,,,0.78,444.000000,,2013-04-20 16:52:00,
2013-04-20 13:23:00,47.0,27.0,-100.00,West,259,7.0,22.0,46,0.00,,,0.78,541.000000,,2013-04-20 17:23:00,
2013-04-20 13:33:00,47.0,27.0,-100.00,West,259,7.0,22.0,46,0.00,,,0.78,541.000000,,2013-04-20 17:33:00,
2013-04-20 13:42:00,47.0,27.0,-100.00,West,259,7.0,22.0,46,0.00,,,0.78,541.000000,,2013-04-20 17:42:00,
2013-04-20 13:52:00,47.0,27.0,-100.00,West,259,7.0,22.0,46,0.00,,,0.78,541.000000,,2013-04-20 17:52:00,
2013-04-20 14:22:00,50.0,30.0,-100.00,WSW,244,9.0,25.0,46,0.00,,,0.78,823.000000,,2013-04-20 18:22:00,
2013-04-20 14:32:00,50.0,30.0,-100.00,WSW,244,9.0,25.0,46,0.00,,,0.78,823.000000,,2013-04-20 18:32:00,
2013-04-20 14:42:00,50.0,30.0,-100.00,WSW,244,9.0,25.0,46,0.00,,,0.78,823.000000,,2013-04-20 18:42:00,
2013-04-20 14:52:00,50.0,30.0,-100.00,WSW,244,9.0,25.0,46,0.00,,,0.78,823.000000,,2013-04-20 18:52:00,
2013-04-20 15:22:00,49.0,29.0,-100.00,West,281,6.0,18.0,45,0.00,,,0.78,647.000000,,2013-04-20 19:22:00,
2013-04-20 15:32:00,49.0,29.0,-100.00,West,281,6.0,18.0,45,0.00,,,0.78,647.000000,,2013-04-20 19:32:00,
2013-04-20 15:42:00,49.0,29.0,-100.00,West,281,6.0,18.0,45,0.00,,,0.78,647.000000,,2013-04-20 19:42:00,
2013-04-20 15:52:00,49.0,29.0,-100.00,West,281,6.0,18.0,45,0.00,,,0.78,647.000000,,2013-04-20 19:52:00,
2013-04-20 16:22:00,50.0,26.0,-100.00,WSW,257,8.0,24.0,39,0.00,,,0.78,652.000000,,2013-04-20 20:22:00,
2013-04-20 16:32:00,50.0,26.0,-100.00,WSW,257,8.0,24.0,39,0.00,,,0.78,652.000000,,2013-04-20 20:32:00,
2013-04-20 16:42:00,50.0,26.0,-100.00,WSW,257,8.0,24.0,39,0.00,,,0.78,652.000000,,2013-04-20 20:42:00,
2013-04-20 16:52:00,50.0,26.0,-100.00,WSW,257,8.0,24.0,39,0.00,,,0.78,652.000000,,2013-04-20 20:52:00,
2013-04-20 17:22:00,50.0,25.0,-100.00,West,279,6.0,20.0,38,0.00,,,0.78,469.000000,,2013-04-20 21:22:00,
2013-04-20 17:33:00,50.0,25.0,-100.00,West,279,6.0,20.0,38,0.00,,,0.78,469.000000,,2013-04-20 21:33:00,
2013-04-20 17:43:00,50.0,25.0,-100.00,West,279,6.0,20.0,38,0.00,,,0.78,469.000000,,2013-04-20 21:43:00,
2013-04-20 17:52:00,50.0,25.0,-100.00,West,279,6.0,20.0,38,0.00,,,0.78,469.000000,,2013-04-20 21:52:00,
2013-04-20 18:23:00,47.0,25.0,-100.00,West,261,5.0,19.0,41,0.00,,,0.78,252.000000,,2013-04-20 22:23:00,
2013-04-20 18:32:00,47.0,25.0,-100.00,West,261,5.0,19.0,41,0.00,,,0.78,252.000000,,2013-04-20 22:32:00,
2013-04-20 18:42:00,47.0,25.0,-100.00,West,261,5.0,19.0,41,0.00,,,0.78,252.000000,,2013-04-20 22:42:00,
2013-04-20 18:52:00,47.0,25.0,-100.00,West,261,5.0,19.0,41,0.00,,,0.78,252.000000,,2013-04-20 22:52:00,
2013-04-20 19:22:00,46.0,23.0,-100.00,West,259,7.0,22.0,40,0.00,,,0.70,89.000000,,2013-04-20 23:22:00,
2013-04-20 19:32:00,46.0,23.0,-100.00,West,259,7.0,22.0,40,0.00,,,0.70,89.000000,,2013-04-20 23:32:00,
2013-04-20 19:42:00,46.0,23.0,-100.00,West,259,7.0,22.0,40,0.00,,,0.70,89.000000,,2013-04-20 23:42:00,
2013-04-20 19:52:00,46.0,23.0,-100.00,West,259,7.0,22.0,40,0.00,,,0.70,89.000000,,2013-04-20 23:52:00,
2013-04-20 20:22:00,44.0,22.0,-100.00,West,270,5.0,16.0,42,0.00,,,0.11,19.000000,,2013-04-21 00:22:00,
2013-04-20 20:32:00,44.0,22.0,-100.00,West,270,5.0,16.0,42,0.00,,,0.11,19.000000,,2013-04-21 00:32:00,
2013-04-20 20:42:00,44.0,22.0,-100.00,West,270,5.0,16.0,42,0.00,,,0.11,19.000000,,2013-04-21 00:42:00,
2013-04-20 20:52:00,44.0,22.0,-100.00,West,270,5.0,16.0,42,0.00,,,0.11,19.000000,,2013-04-21 00:52:00,
2013-04-20 21:22:00,42.0,25.0,-100.00,WSW,248,4.0,15.0,50,0.00,,,0.05,1.000000,,2013-04-21 01:22:00,
2013-04-20 21:32:00,42.0,25.0,-100.00,WSW,248,4.0,15.0,50,0.00,,,0.05,1.000000,,2013-04-21 01:32:00,
2013-04-20 21:42:00,42.0,25.0,-100.00,WSW,248,4.0,15.0,50,0.00,,,0.05,1.000000,,2013-04-21 01:42:00,
2013-04-20 21:52:00,42.0,25.0,-100.00,WSW,248,4.0,15.0,50,0.00,,,0.05,1.000000,,2013-04-21 01:52:00,
2013-04-20 22:22:00,40.0,24.0,-100.00,SW,234,3.0,10.0,52,0.00,,,0.05,1.000000,,2013-04-21 02:22:00,
2013-04-20 22:32:00,40.0,24.0,-100.00,SW,234,3.0,10.0,52,0.00,,,0.05,1.000000,,2013-04-21 02:32:00,
2013-04-20 22:42:00,40.0,24.0,-100.00,SW,234,3.0,10.0,52,0.00,,,0.05,1.000000,,2013-04-21 02:42:00,
2013-04-20 22:52:00,40.0,24.0,-100.00,SW,234,3.0,10.0,52,0.00,,,0.05,1.000000,,2013-04-21 02:52:00,
2013-04-20 23:22:00,39.0,22.0,-100.00,SSW,200,5.0,11.0,50,0.00,,,0.02,1.000000,,2013-04-21 03:22:00,
2013-04-20 23:33:00,39.0,22.0,-100.00,SSW,200,5.0,11.0,50,0.00,,,0.02,1.000000,,2013-04-21 03:33:00,
2013-04-20 23:42:00,39.0,22.0,-100.00,SSW,200,5.0,11.0,50,0.00,,,0.02,1.000000,,2013-04-21 03:42:00,
2013-04-20 23:52:00,39.0,22.0,-100.00,SSW,200,5.0,11.0,50,0.00,,,0.02,1.000000,,2013-04-21 03:52:00,